{"data":{"norad_id":58774,"intl_designator":"2024-011K","name":"STARLINK-31122","alt_names":[],"object_type":"PAYLOAD","status":"ACTIVE","operator":null,"country":"US","launch_date":"2024-01-14","launch_site_code":"AFWTR","launch_vehicle":null,"mission":null,"orbit_class":"UNKNOWN","rcs_meters":null,"size_class":null,"mass_kg":null,"dimensions":null,"purposes":["comms"],"wikipedia_slug":null,"has_3d_model":false,"image_url":null,"decayed_at":null,"tle_current":{"epoch":"2026-09-20T07:21:51.735456Z","epoch_age_seconds":169302,"freshness":"FRESH","line1":"1 58774U 24011K   26263.30684879  .00001141  00000+0  44910-4 0  9991","line2":"2 58774  53.1625 188.5154 0001061 120.5620 239.5488 15.34392010150082","mean_motion":15.3439201,"eccentricity":0.0001061,"inclination_deg":53.1625,"raan_deg":188.5154,"arg_perigee_deg":120.562,"mean_anomaly_deg":239.5488,"bstar":4.491e-5,"rev_number":15008,"period_min":93.848246772349,"perigee_km":462.00117260482,"apogee_km":463.45280394313,"semimajor_km":6840.863988274,"source":"CELESTRAK","updated_at":"2026-09-21T09:00:33.958264Z"}}}